IRIDIUM 914 [-]

Last updated on Wed Jun 28 2023 00:03:01 GMT+0000 (Coordinated Universal Time)

1 24836U 97030A 23178.14505599 .00000631 00000+0 19621-3 0 9992 2 24836 86.3941 126.9536 0004191 82.0848 278.0826 14.39510474365457
UTC large
Height (km)
Speed (km/s)
/
Latitude / Longitude
Inclination (degrees)
Orbital Period (minutes)
Azimuth
Elevation
Range (km)
Doppler Factor

Next 0 passes for location: London (51.5072 / 0.1276)

Sorry there are no passes over London.
IRIDIUM 914 [-]